Flag for Pakistan Weather past 2 weeks in Rawalpindi, Pakistan

Now
93 °F

Passing clouds.


Feels Like: 92 °F
Forecast: 72 / 99 °F
Wind: No wind

Location: Islamabad Airport

Current Time: May 22, 2015 at 8:21:49 PM

Latest Report: May 22, 2015 at 8:00 PM


Visibility: 5 mi

Pressure: 29.62 "Hg

Humidity: 30%

Dew point: 57 °F

Location of RawalpindiLocation

Historic Weather in Rawalpindi — Graph

°F

Rawalpindi temperature yesterday

Maximum temperature yesterday: 99 °F (at 2:00 PM)
Minimum temperature yesterday: 75 °F (at 2:00 AM)
Average temperature yesterday: 86 °F

Past Weeks' High & Low Weather Summary

 TemperatureHumidityPressure
High100 °F (May 8, 1:00 PM)94% (May 17, 12:00 PM)29.95 "Hg (May 17, 12:00 PM)
Low66 °F (May 13, 12:00 AM)18% (May 22, 3:00 PM)29.53 "Hg (May 19, 8:00 AM)
Average82 °F52%29.77 "Hg
* Reported May 7 7:00 PM — May 22 7:00 PM, Rawalpindi, Weather by CustomWeather, © 2015

Note: Actual official high and low records may vary slightly from our data, if they occured in-between our weather recording intervals... More about our weather records

Advertising

Rawalpindi weather history for previous 24 hours

 ConditionsComfort  
Time TempWeatherWind HumidityBarometerVisibility
7:00 PM
Fri, May 22
95 °FScattered clouds.5 mph26%29.59 "Hg5 mi
6:00 PM95 °FScattered clouds.9 mph25%29.59 "Hg5 mi
5:00 PM97 °FPartly sunny.12 mph23%29.56 "HgN/A
4:00 PM100 °FScattered clouds.14 mph18%29.59 "HgN/A
3:00 PM100 °FPassing clouds.12 mph18%29.59 "HgN/A
1:00 PM99 °FPassing clouds.7 mph21%29.65 "HgN/A
12:00 PM97 °FPassing clouds.7 mph23%29.65 "HgN/A
11:00 AM95 °FSunny.5 mph25%29.68 "Hg10 mi
10:00 AM91 °FSunny.7 mph32%29.68 "Hg10 mi
9:00 AM88 °FSunny.7 mph33%29.68 "Hg10 mi
8:00 AM81 °FPassing clouds.7 mph42%29.68 "Hg4 mi
7:00 AM77 °FPassing clouds.No wind44%29.68 "Hg4 mi
6:00 AM73 °FPassing clouds.No wind53%29.65 "Hg4 mi
5:00 AM72 °FPassing clouds.No wind61%29.65 "Hg4 mi
4:00 AM73 °FPassing clouds.7 mph57%29.65 "Hg4 mi
3:00 AM73 °FPassing clouds.7 mph57%29.65 "Hg4 mi
2:00 AM75 °FPassing clouds.No wind50%29.65 "Hg4 mi
1:00 AM77 °FPassing clouds.7 mph44%29.68 "Hg4 mi
12:00 AM79 °FPassing clouds.7 mph45%29.68 "Hg4 mi
11:00 PM
Thu, May 21
79 °FPassing clouds.7 mph45%29.68 "Hg4 mi
10:00 PM82 °FClear.7 mph35%29.68 "Hg10 mi
9:00 PM84 °FClear.7 mph35%29.68 "Hg10 mi
8:00 PM88 °FPassing clouds.12 mph27%29.68 "HgN/A
Weather by CustomWeather, © 2015

See weather overviewHow to use our weather pages